{"data":{"norad_id":69007,"epoch":"2026-09-18T23:05:15.578304Z","epoch_age_seconds":151875,"freshness":"FRESH","line1":"1 69007U 26100AD  26261.96198586  .00001996  00000+0  90626-4 0  9991","line2":"2 69007  97.3910 158.2847 0009637  86.8252 273.4087 15.21905919 21066","mean_motion":15.21905919,"eccentricity":0.0009637,"inclination_deg":97.391,"raan_deg":158.2847,"arg_perigee_deg":86.8252,"mean_anomaly_deg":273.4087,"bstar":9.0626e-5,"rev_number":2106,"period_min":94.61820090339,"perigee_km":493.4635514483,"apogee_km":506.72065021724,"semimajor_km":6878.2291008328,"source":"CELESTRAK","updated_at":"2026-09-20T09:00:24.627760Z"}}